Regional Weather Roundup
Issued by NWS Newport/Morehead, NC

Current Version | Previous Version | Graphics & Text | Print | Product List | Glossary Off
Versions: 1 2 3 4 5 6 7 8 9 10 11 12 13 14 15 16 17 18 19 20 21 22 23 24 25 26 27 28 29 30 31 32 33 34 35 36 37 38 39 40 41 42 43 44 45 46 47 48 49 50

903
ASUS42 KMHX 290525
RWRMHX
WEATHER ROUNDUP FOR EASTERN NORTH CAROLINA
NATIONAL WEATHER SERVICE NEWPORT/MOREHEAD CITY NC
100 AM EDT MON MAY 29 2017

NOTE: "FAIR" INDICATES FEW OR NO CLOUDS BELOW 12,000 FEET
WITH NO SIGNIFICANT WEATHER AND/OR OBSTRUCTIONS TO VISIBILITY

NCZ015>017-031-032-045>047-102-103-290600-
NORTH COAST

CITY           SKY/WX    TMP DP  RH WIND       PRES   REMARKS
EDENTON        CLOUDY    73  71  93 CALM      29.80F
ELIZABETH CITY CLOUDY    71  71 100 CALM      29.79F FOG
KITTY HAWK     CLOUDY    66  66 100 CALM      29.79F FOG
MANTEO         MOCLDY    70  69  98 CALM      29.80F

$$

NCZ045>047-081-094-103-104-290600-
CENTRAL COAST

CITY           SKY/WX    TMP DP  RH WIND       PRES   REMARKS
FRISCO         CLOUDY    76  72  87 W9        29.79F

$$

NCZ095-097-098-100-101-290600-
SOUTHERN COAST

CITY           SKY/WX    TMP DP  RH WIND       PRES   REMARKS
BEAUFORT       CLOUDY    75  72  90 SW10      29.80F
CEDAR ISLAND   NOT AVBL
JACKSONVILLE   CLOUDY    72  70  93 SW10      29.82S
PINEY ISLAND   CLOUDY   N/A N/A N/A SW9       29.79
WILMINGTON     CLOUDY    70  68  93 SW6       29.85F


$$

NCZ011>013-027>030-043-044-078>080-089-090>093-098-290600-
COASTAL PLAIN

CITY           SKY/WX    TMP DP  RH WIND       PRES   REMARKS
AHOSKIE        NOT AVBL
CLINTON        PTCLDY    73  72  95 SW6       29.84S
ELIZABETHTOWN  CLEAR     72  71  98 SW7       29.85F
GOLDSBORO      CLOUDY    76  75  98 SW7       29.80F
GREENVILLE     RAIN      77  68  73 W3        29.82F
HAVELOCK       NOT AVBL
KENANSVILLE    CLOUDY    73  70  88 SW7       29.82F
KINSTON        CLOUDY    75  70  83 SW5       29.82F
NEW BERN       CLOUDY    76  71  85 SW8       29.81F
RICHLANDS      CLOUDY    72  70  93 SW8       29.83F
ROCKY MOUNT    MOCLDY    72  70  93 SW3       29.81F
WASHINGTON     CLOUDY    74  68  81 CALM      29.79F
WHITEVILLE     CLEAR     70  68  95 CALM      29.86S

$$

AMZ130-135-150-152-154-156-158-170-250-252-270-ANZ085-086-088-633-658-670-290600-
MARINE OBSERVATIONS

STATION/POSITION TIME  TEMP    WIND        PRES    WAVE   SWELL
                       AIR SEA DIR/SP/G            HT/PER HT/PER
                 (UTC) (F)     (DEG/KT/KT) (MB)    (FT/S) (FT/S)
CHESAPEAKE LIGHT NOT AVBL
64 E VA BEACH    0450   64 64  290/  8/  8 1009.1    3/ 7   2/ 7
DUCK             0500   67 68   10/  2/  4 1008.4
2 E DUCK         0500      68                N/A     2/ 7
OREGON INLET     0500   68 76   60/  4/  5 1008.8
13E OREGON INLT  0448      67                N/A     3/ 6   3/ 6
HATTERAS CG      0500   75 76  220/  7/ 10 1008.5
DIAMOND BUOY     0450   76 76  230/ 21/ 25 1008.6    5/ 6
CAPE LOOKOUT     0500   74     250/ 11/ 14 1009.1
BEAUFORT LAB     0500   74 74  240/  5/ 10 1008.5
30 SE NEW RVR IN 0508   77 76  230/ 17/ 21 1010.2
30 SE NEW RVR IN 0443      76                N/A     5/ 6
27 SE WRIGHTSVLE 0508   74 77  210/ 12/ 17 1010.1
5 SE WRIGHTSVLE  0508   74 75  260/ 12/ 19 1010.5
225 S CAPE HAT   0450   77 77  240/ 14/ 16 1015.2    4/ 6   2/ 7
41 SE CHARLESTON 0500   78 76  220/ 16/ 17 1012.1

$$




USA.gov is the U.S. government's official web portal to all federal, state and local government web resources and services.